Wind_Speed
27 27 27 27 26 26 27 27 28 28 28 28 28 29 29 29 30 29 30 30 31 31 32 33 34 34 34 35 35 35 36 36 37 38 39 39 39 39
28 27 27 27 26 26 26 26 27 28 29 28 28 28 29 29 28 29 29 30 30 30 31 32 33 33 33 33 34 35 36 37 37 37 37 37 37 38
28 28 28 27 26 26 26 27 27 28 28 29 29 29 30 29 29 29 29 29 30 30 31 32 32 32 32 32 33 34 35 36 35 35 36 35 36 36
26 26 27 26 26 26 26 26 26 27 28 28 28 28 28 29 29 29 29 29 30 31 31 32 32 33 33 33 32 33 34 34 34 35 34 35 35 34
24 24 24 24 25 25 25 26 26 25 26 27 28 27 27 28 29 29 30 29 30 30 31 31 31 32 32 33 33 33 33 33 33 33 33 33 32 31
23 23 23 23 23 24 24 25 25 25 25 25 25 26 27 27 28 28 28 27 28 28 29 30 31 31 31 32 31 31 31 32 32 31 30 29 29 29
21 21 22 22 22 23 23 23 24 24 25 25 25 24 24 24 24 25 26 26 26 26 27 28 29 30 30 30 30 29 29 28 28 27 26 26 26 26
17 17 18 19 20 20 20 20 21 21 22 23 23 24 23 23 23 24 24 24 25 26 26 27 28 28 28 27 27 26 26 25 25 25 24 25 25 25
13 14 15 16 17 17 17 18 19 19 19 20 21 22 21 21 21 21 22 22 23 23 24 24 24 24 23 24 24 24 23 22 22 22 22 23 23 24
12 13 13 13 14 15 15 15 15 16 17 17 18 18 18 18 18 18 18 20 20 21 21 21 20 20 20 21 20 20 20 20 20 20 21 22 22 22
9 10 10 9 10 11 11 12 12 13 13 14 14 14 14 15 16 17 17 18 18 17 18 18 17 17 18 18 18 18 18 19 20 20 21 21 21 21
5 5 5 5 6 7 7 8 8 9 9 9 9 10 11 12 13 13 14 14 14 15 15 15 15 15 16 16 16 17 18 19 19 19 19 19 19 19
1 1 1 1 1 1 2 3 3 4 5 5 6 7 7 8 9 10 10 11 12 12 13 13 13 13 14 15 15 16 17 17 17 17 17 17 18 17
5 5 4 4 3 3 2 2 1 2 2 2 3 3 4 5 6 6 7 8 8 9 9 10 11 12 12 13 14 14 15 16 15 16 16 16 16 17
8 7 6 6 6 5 5 4 4 3 3 2 2 3 3 3 4 4 5 6 7 7 8 8 10 11 12 12 13 13 14 14 14 15 16 16 16 17
10 10 10 10 9 8 7 7 7 6 5 5 4 4 4 5 5 5 6 6 7 7 8 8 9 10 11 12 13 14 14 14 15 15 16 17 18 18
13 13 13 12 11 11 10 10 9 9 8 8 7 7 7 7 7 7 7 8 8 8 8 9 10 11 11 12 13 14 14 15 15 16 16 17 18 19
15 15 15 15 14 14 13 13 12 12 11 11 10 9 9 8 9 9 9 9 9 9 9 10 11 12 12 13 13 14 15 16 17 18 19 19 20 20
17 16 16 15 15 15 14 14 14 13 12 11 11 11 11 10 10 10 10 10 11 11 11 12 12 13 13 15 15 16 16 17 18 19 20 20 21 21
17 16 16 16 15 15 14 14 14 14 13 12 12 12 12 12 11 11 11 12 12 12 12 13 13 14 15 15 16 18 19 19 19 20 21 22 22 23
17 16 16 16 16 15 15 15 14 14 13 13 13 13 13 13 13 13 13 13 13 13 14 14 15 16 16 17 18 20 21 22 22 23 23 24 24 24
17 16 16 15 15 15 14 14 14 13 13 13 13 13 13 13 14 14 14 14 15 15 16 17 17 18 19 20 21 22 23 24 24 25 25 26 26 26
16 15 15 15 15 14 14 14 14 14 14 14 14 14 14 14 15 15 16 16 17 18 19 19 20 21 22 23 24 25 25 26 26 27 27 28 29 28
Wind_Direction
262 261 260 259 260 261 260 258 256 255 255 256 257 258 258 258 258 258 259 260 261 263 265 266 267 268 268 270 271 271 272 273 273 275 276 277 278 278
260 259 258 258 259 259 259 259 257 256 255 257 257 257 258 259 258 258 259 261 263 265 265 266 267 269 270 270 271 272 273 274 275 276 276 277 277 277
260 258 256 257 257 259 259 259 258 257 257 257 257 257 258 258 256 258 259 261 264 266 267 268 269 270 271 271 272 273 273 274 275 276 276 277 277 278
259 256 256 257 258 258 257 257 256 257 258 258 259 259 258 260 260 261 260 262 264 266 266 268 269 272 272 273 273 274 273 273 275 277 278 278 278 279
258 257 257 257 256 256 257 256 255 256 257 258 257 257 258 261 262 263 265 266 267 266 268 268 270 272 272 272 273 273 274 274 275 276 277 278 279 280
256 254 255 256 256 256 255 255 255 256 257 257 257 258 259 262 264 264 264 266 268 270 270 270 270 271 272 273 273 274 275 276 276 277 277 278 279 280
257 254 253 253 253 255 255 255 254 254 255 257 259 261 262 263 264 265 265 266 268 270 271 270 271 271 272 273 274 276 276 277 278 277 277 278 279 280
258 256 256 253 254 254 253 253 253 254 256 258 260 259 261 263 266 266 266 268 270 271 273 273 275 275 275 274 275 276 277 278 278 277 277 278 279 280
259 260 259 258 256 256 256 256 255 255 257 260 262 263 264 265 266 267 268 269 272 274 274 275 275 274 274 274 275 276 277 277 277 279 280 281 281 282
262 261 259 261 255 256 255 257 258 258 260 262 262 263 263 264 264 266 268 270 272 273 274 275 275 276 277 278 278 277 278 279 281 282 284 284 284 284
266 265 261 257 253 252 253 256 259 261 260 259 260 261 263 265 266 268 270 272 274 274 277 278 278 280 281 281 281 281 282 283 283 285 287 286 286 287
271 263 259 254 250 249 251 253 256 257 259 262 267 270 270 269 269 270 271 274 276 278 278 281 283 283 283 282 283 284 285 286 286 287 288 288 288 288
76 98 128 137 178 248 273 266 258 259 266 269 270 272 274 276 278 279 278 281 282 282 285 284 285 285 285 285 286 287 290 292 292 292 291 290 290 290
81 83 85 81 71 63 59 40 1 320 296 286 291 291 295 297 298 296 293 292 293 296 297 295 292 291 291 291 291 293 295 296 296 296 295 294 294 293
78 79 81 78 73 69 63 56 52 42 28 11 1 351 342 337 332 324 319 313 308 309 309 306 303 301 300 300 300 300 300 299 299 298 298 297 296 296
80 82 83 80 74 69 68 64 60 56 50 42 36 31 24 15 5 353 344 338 332 325 318 317 317 314 311 308 305 303 302 302 301 301 300 300 299 298
81 81 81 79 75 73 71 69 63 60 58 56 54 51 45 36 28 21 10 1 353 346 338 332 329 325 322 317 312 310 307 306 304 303 302 301 301 300
82 81 79 77 75 72 70 68 66 64 63 61 56 51 45 36 28 21 14 8 2 355 348 341 335 330 327 324 320 317 314 309 306 304 301 300 299 298
81 80 77 75 73 71 68 67 65 62 59 56 51 44 37 31 25 19 14 8 2 355 349 343 338 334 331 328 324 321 317 313 310 307 305 303 301 299
80 78 75 74 73 70 67 64 62 59 54 49 44 37 30 25 21 15 10 4 359 353 348 342 338 334 331 327 324 322 319 314 310 307 304 303 301 300
78 77 76 73 71 68 65 61 56 51 47 42 36 31 27 24 19 14 8 2 357 352 347 342 337 332 328 326 323 321 319 316 313 309 306 304 302 300
76 75 73 71 68 64 60 55 50 45 39 34 30 27 24 19 14 9 3 358 353 348 344 340 336 332 329 326 324 321 318 315 313 312 310 308 305 303
75 72 70 66 63 58 53 48 43 39 35 31 26 22 18 13 8 4 359 354 349 345 339 335 333 331 329 327 325 323 320 317 313 312 310 308 306 305
Height
5775 5776 5777 5778 5779 5780 5781 5782 5784 5785 5786 5787 5788 5789 5789 5790 5791 5791 5792 5792 5792 5792 5792 5792 5791 5790 5789 5789 5787 5786 5785 5783 5782 5781 5779 5777 5775 5772
5767 5768 5769 5770 5771 5772 5773 5774 5775 5777 5778 5779 5780 5781 5782 5782 5783 5783 5784 5784 5784 5783 5783 5783 5782 5781 5781 5779 5778 5777 5775 5774 5773 5771 5769 5767 5765 5762
5758 5760 5761 5762 5764 5765 5766 5766 5768 5769 5770 5771 5772 5773 5774 5775 5775 5775 5775 5775 5775 5775 5775 5774 5773 5773 5772 5770 5769 5767 5766 5764 5763 5761 5759 5757 5755 5753
5750 5752 5753 5754 5756 5757 5758 5759 5760 5761 5763 5763 5764 5765 5766 5766 5767 5767 5767 5767 5767 5767 5766 5766 5765 5764 5763 5761 5760 5758 5757 5755 5754 5752 5750 5748 5746 5744
5743 5744 5745 5747 5748 5750 5751 5752 5753 5754 5755 5756 5757 5757 5758 5758 5758 5759 5759 5759 5758 5758 5757 5757 5756 5755 5754 5752 5751 5749 5748 5746 5745 5743 5741 5739 5737 5735
5736 5737 5738 5740 5742 5743 5744 5745 5746 5747 5748 5749 5749 5750 5750 5751 5751 5751 5751 5751 5750 5750 5749 5748 5747 5746 5745 5744 5742 5741 5739 5737 5736 5734 5732 5730 5729 5726
5730 5731 5732 5733 5734 5736 5737 5738 5739 5740 5741 5742 5742 5743 5743 5744 5744 5744 5744 5743 5743 5742 5741 5740 5739 5738 5737 5735 5734 5733 5731 5729 5728 5726 5725 5723 5721 5719
5724 5725 5726 5727 5728 5729 5730 5731 5732 5733 5734 5735 5736 5737 5737 5737 5737 5737 5737 5737 5736 5735 5734 5733 5732 5730 5729 5728 5726 5725 5724 5722 5721 5719 5718 5716 5714 5712
5719 5720 5721 5722 5722 5724 5725 5725 5726 5727 5729 5730 5730 5730 5731 5731 5731 5731 5730 5730 5729 5728 5727 5726 5725 5723 5722 5721 5720 5718 5717 5716 5714 5713 5711 5709 5708 5706
5716 5716 5717 5717 5718 5719 5720 5721 5722 5722 5723 5724 5724 5724 5725 5725 5725 5725 5724 5724 5723 5722 5721 5720 5719 5718 5716 5715 5714 5712 5711 5710 5709 5707 5705 5703 5702 5700
5713 5713 5714 5714 5715 5715 5717 5717 5718 5718 5718 5719 5719 5719 5719 5719 5719 5720 5719 5718 5718 5717 5716 5715 5714 5712 5711 5710 5708 5707 5706 5704 5703 5701 5700 5698 5696 5694
5711 5711 5711 5712 5712 5713 5714 5714 5714 5715 5715 5715 5715 5715 5715 5715 5715 5715 5714 5713 5713 5712 5711 5710 5709 5708 5707 5706 5704 5703 5701 5699 5698 5696 5694 5693 5691 5689
5710 5710 5711 5711 5712 5712 5712 5712 5712 5712 5713 5713 5713 5712 5712 5712 5711 5711 5710 5710 5709 5708 5707 5706 5705 5704 5703 5702 5700 5699 5697 5695 5693 5691 5690 5688 5686 5684
5711 5711 5711 5711 5712 5712 5712 5711 5711 5711 5711 5711 5711 5711 5711 5710 5709 5709 5708 5707 5706 5705 5704 5703 5702 5701 5699 5698 5696 5695 5693 5691 5689 5688 5686 5684 5682 5680
5712 5712 5712 5712 5712 5712 5712 5712 5711 5711 5711 5711 5710 5710 5710 5709 5708 5708 5706 5705 5704 5703 5702 5700 5699 5698 5696 5695 5693 5691 5690 5688 5686 5684 5682 5680 5677 5675
5714 5714 5714 5714 5714 5714 5713 5713 5713 5712 5712 5711 5711 5710 5710 5709 5708 5707 5706 5704 5703 5701 5700 5698 5697 5696 5694 5692 5690 5689 5687 5685 5683 5680 5678 5676 5673 5671
5717 5717 5717 5716 5716 5716 5716 5715 5714 5714 5713 5713 5712 5711 5710 5709 5708 5707 5705 5703 5702 5700 5699 5697 5695 5694 5692 5690 5688 5685 5683 5681 5679 5677 5674 5671 5669 5666
5721 5721 5720 5720 5719 5719 5718 5718 5717 5716 5716 5715 5714 5713 5711 5710 5709 5707 5705 5704 5702 5700 5698 5696 5694 5692 5690 5687 5685 5682 5680 5677 5675 5672 5669 5667 5664 5661
5725 5725 5724 5724 5723 5723 5722 5721 5720 5719 5718 5717 5716 5714 5713 5711 5710 5708 5706 5704 5702 5700 5698 5695 5693 5691 5688 5685 5683 5680 5677 5673 5670 5668 5664 5661 5659 5656
5729 5729 5728 5728 5727 5726 5725 5724 5723 5722 5721 5719 5718 5716 5714 5712 5710 5708 5706 5704 5702 5699 5697 5694 5692 5689 5686 5683 5680 5677 5673 5670 5666 5663 5660 5656 5653 5650
5734 5733 5733 5732 5731 5730 5729 5728 5726 5725 5723 5722 5720 5718 5716 5713 5711 5709 5707 5704 5701 5699 5696 5693 5690 5687 5683 5680 5677 5673 5669 5665 5661 5657 5654 5650 5647 5644
5738 5737 5737 5736 5735 5733 5732 5731 5729 5728 5726 5724 5721 5719 5717 5715 5712 5709 5707 5704 5701 5698 5694 5691 5688 5684 5680 5677 5673 5669 5665 5661 5656 5651 5647 5643 5639 5636
5742 5741 5740 5739 5738 5736 5735 5733 5732 5730 5728 5725 5723 5721 5718 5715 5712 5709 5706 5703 5700 5696 5692 5689 5685 5681 5677 5672 5668 5664 5660 5655 5651 5646 5642 5637 5632 5628